Weather History for Tishomingo Cnty AP, Belmont,, MS

Change the Weather History Date:

Monday, December 23, 2013

  Actual Average (KTUP) Record (KTUP)
Temperature  
Mean Temperature 35 °F 43 °F  
Max Temperature 41 °F 52 °F 76 °F (1970)
Min Temperature 29 °F 33 °F -3 °F (1989)
Degree Days  
Heating Degree Days 30 22  
Month to date heating degree days 467  
Since 1 July heating degree days 989  
Cooling Degree Days 0 0  
Month to date cooling degree days 0  
Year to date cooling degree days 2044  
Moisture  
Dew Point 29 °F    
Average Humidity 76    
Maximum Humidity 91    
Minimum Humidity 60    
Precipitation  
Precipitation 0.01 in 0.19 in 1.97 in (2002)
Month to date precipitation 4.88  
Year to date precipitation 53.61  
Snow  
Snow 0.00 in 0.10 in 0.30 in (1998)
Month to date snowfall 0.2  
Since 1 July snowfall 0.2  
Snow Depth -    
Sea Level Pressure  
Sea Level Pressure 30.35 in    
Wind  
Wind Speed 7 mph (NNW)    
Max Wind Speed 14 mph    
Max Gust Speed 20 mph    
Visibility 10 miles    
Events Rain    
T = Trace of Precipitation, MM = Missing Value Source: NWS Daily Summary

Daily Weather History Graph

Daily Weather History Graph

Search for Another Location

Airport:

Trip Planner

Search our weather history database for the weather conditions in past years. The results will help you decide how hot, cold, wet, or windy it might be!

Date:

Astronomy

Dec. 23, 2013 Rise Set
Actual Time 6:56 AM CST 4:47 PM CST
Civil Twilight 6:28 AM CST 5:15 PM CST
Nautical Twilight 5:57 AM CST 5:47 PM CST
Astronomical Twilight 5:26 AM CST 6:17 PM CST
Moon 10:42 PM CST (12/23) 10:35 AM CST (12/23)
Length of Visible Light 10h 46m
Length of Day
9h 50m
Waning Gibbous, 68% of the Moon is Illuminated
Dec 23
Waning Gibbous
Dec 25
Last Quarter
Jan 1
New
Jan 7
First Quarter
Jan 15
Full

Hourly Weather History & Observations

Time (CST) Temp. Windchill Dew Point Humidity Pressure Visibility Wind Dir Wind Speed Gust Speed Precip Events Conditions
12:15 AM 41.9 °F 39.0 °F 39.4 °F 91% 30.16 in 10.0 mi WNW 4.6 mph - N/A   Overcast
12:35 AM 41.9 °F 37.5 °F 39.0 °F 90% 30.17 in 10.0 mi NW 6.9 mph - N/A   Overcast
12:55 AM 41.9 °F 36.9 °F 37.9 °F 86% 30.18 in 10.0 mi NW 8.1 mph - N/A   Overcast
1:15 AM 41.5 °F 37.1 °F 37.8 °F 86% 30.19 in 10.0 mi NW 6.9 mph - N/A   Overcast
1:35 AM 41.5 °F 38.6 °F 37.2 °F 85% 30.19 in 10.0 mi NW 4.6 mph - N/A   Overcast
1:55 AM 41.2 °F 35.5 °F 36.7 °F 84% 30.20 in 10.0 mi NNW 9.2 mph - N/A   Overcast
2:15 AM 41.0 °F 37.1 °F 36.9 °F 85% 30.20 in 10.0 mi NW 5.8 mph - N/A   Overcast
2:35 AM 41.0 °F 35.8 °F 36.5 °F 84% 30.20 in 10.0 mi NW 8.1 mph - N/A   Overcast
2:55 AM 40.3 °F 34.4 °F 36.0 °F 85% 30.22 in 10.0 mi NNW 9.2 mph 16.1 mph N/A   Overcast
3:15 AM 39.6 °F 33.5 °F 34.9 °F 83% 30.23 in 10.0 mi NW 9.2 mph 19.6 mph N/A   Overcast
3:35 AM 39.2 °F 34.2 °F 34.3 °F 83% 30.24 in 10.0 mi NNW 6.9 mph - N/A   Overcast
3:55 AM 38.5 °F 32.7 °F 33.4 °F 82% 30.24 in 10.0 mi NNW 8.1 mph 17.3 mph N/A   Overcast
4:15 AM 38.3 °F 31.4 °F 32.9 °F 81% 30.24 in 10.0 mi NW 10.4 mph 18.4 mph N/A   Overcast
4:35 AM 37.8 °F 30.7 °F 32.2 °F 80% 30.25 in 10.0 mi NNW 10.4 mph - N/A   Overcast
4:55 AM 37.6 °F 32.3 °F 32.2 °F 81% 30.26 in 10.0 mi NNW 6.9 mph - N/A   Overcast
5:15 AM 37.6 °F 31.0 °F 32.4 °F 81% 30.27 in 10.0 mi NNW 9.2 mph - N/A   Overcast
5:35 AM 36.0 °F 31.1 °F 32.9 °F 89% 30.27 in 7.0 mi NNW 5.8 mph - N/A Rain Rain
5:55 AM 36.5 °F 31.0 °F 32.0 °F 84% 30.28 in 10.0 mi NNW 6.9 mph - N/A   Overcast
6:15 AM 36.5 °F 31.8 °F 32.0 °F 84% 30.29 in 10.0 mi NNW 5.8 mph - N/A   Overcast
6:35 AM 36.5 °F 30.3 °F 31.5 °F 82% 30.31 in 10.0 mi NNW 8.1 mph - N/A   Overcast
6:55 AM 36.1 °F 29.9 °F 31.5 °F 83% 30.32 in 10.0 mi North 8.1 mph - N/A   Overcast
7:15 AM 36.0 °F 29.0 °F 29.7 °F 78% 30.33 in 10.0 mi NNW 9.2 mph - N/A   Overcast
7:35 AM 35.8 °F 29.4 °F 29.8 °F 79% 30.34 in 10.0 mi North 8.1 mph - N/A   Overcast
7:55 AM 35.8 °F 29.4 °F 30.0 °F 80% 30.35 in 10.0 mi North 8.1 mph - N/A   Overcast
8:15 AM 36.0 °F 31.1 °F 30.0 °F 79% 30.35 in 10.0 mi North 5.8 mph - N/A   Overcast
8:35 AM 36.3 °F 31.6 °F 30.2 °F 78% 30.36 in 10.0 mi North 5.8 mph - N/A   Overcast
8:55 AM 36.5 °F 29.2 °F 30.0 °F 77% 30.36 in 10.0 mi North 10.4 mph - N/A   Overcast
9:15 AM 36.5 °F 27.8 °F 29.3 °F 75% 30.37 in 10.0 mi North 13.8 mph 18.4 mph N/A   Overcast
9:35 AM 37.0 °F 32.4 °F 29.5 °F 74% 30.39 in 10.0 mi North 5.8 mph 10.4 mph N/A   Overcast
9:55 AM 37.6 °F 31.0 °F 28.4 °F 69% 30.39 in 10.0 mi NNW 9.2 mph - N/A   Overcast
10:15 AM 37.6 °F 31.6 °F 28.4 °F 69% 30.39 in 10.0 mi NNW 8.1 mph - N/A   Overcast
10:35 AM 37.9 °F 30.5 °F 28.4 °F 69% 30.39 in 10.0 mi NNW 11.5 mph 18.4 mph N/A   Overcast
10:55 AM 38.1 °F 30.7 °F 28.2 °F 68% 30.39 in 10.0 mi North 11.5 mph 16.1 mph N/A   Overcast
11:15 AM 38.8 °F 33.2 °F 28.9 °F 68% 30.39 in 10.0 mi North 8.1 mph - N/A   Overcast
11:35 AM 38.7 °F 32.4 °F 28.8 °F 68% 30.39 in 10.0 mi North 9.2 mph - N/A   Overcast
11:55 AM 38.7 °F 32.9 °F 28.6 °F 67% 30.39 in 10.0 mi North 8.1 mph - N/A   Overcast
12:15 PM 38.7 °F 32.4 °F 28.2 °F 66% 30.39 in 10.0 mi NNW 9.2 mph - N/A   Overcast
12:35 PM 39.2 °F 34.2 °F 28.2 °F 65% 30.38 in 10.0 mi North 6.9 mph - N/A   Overcast
12:55 PM 38.8 °F 32.1 °F 27.5 °F 64% 30.37 in 10.0 mi North 10.4 mph 17.3 mph N/A   Overcast
1:15 PM 39.7 °F 33.2 °F 28.4 °F 64% 30.37 in 10.0 mi North 10.4 mph - N/A   Overcast
1:35 PM 39.2 °F 33.0 °F 28.6 °F 66% 30.37 in 10.0 mi NNW 9.2 mph - N/A   Overcast
1:55 PM 39.2 °F 34.2 °F 28.2 °F 65% 30.36 in 10.0 mi North 6.9 mph 16.1 mph N/A   Overcast
2:15 PM 40.3 °F 34.9 °F 28.0 °F 62% 30.36 in 10.0 mi North 8.1 mph - N/A   Mostly Cloudy
2:35 PM 39.4 °F 34.5 °F 28.2 °F 64% 30.36 in 10.0 mi North 6.9 mph - N/A   Overcast
2:55 PM 40.8 °F 35.0 °F 27.9 °F 60% 30.37 in 10.0 mi North 9.2 mph - N/A   Mostly Cloudy
3:15 PM 40.1 °F 34.1 °F 27.5 °F 61% 30.37 in 10.0 mi NNE 9.2 mph - N/A   Scattered Clouds
3:35 PM 39.7 °F 34.3 °F 27.3 °F 61% 30.37 in 10.0 mi North 8.1 mph - N/A   Scattered Clouds
3:55 PM 39.0 °F 34.8 °F 27.3 °F 63% 30.37 in 10.0 mi North 5.8 mph - N/A   Clear
4:15 PM 38.5 °F 34.1 °F 27.1 °F 64% 30.38 in 10.0 mi NNW 5.8 mph - N/A   Scattered Clouds
4:35 PM 37.6 °F 34.0 °F 27.0 °F 66% 30.39 in 10.0 mi North 4.6 mph - N/A   Scattered Clouds
4:55 PM 36.7 °F 32.9 °F 26.6 °F 67% 30.39 in 10.0 mi NNW 4.6 mph - N/A   Clear
5:15 PM 36.0 °F 33.3 °F 26.6 °F 69% 30.40 in 10.0 mi NW 3.5 mph - N/A   Clear
5:35 PM 35.2 °F 31.2 °F 27.1 °F 72% 30.40 in 10.0 mi NW 4.6 mph - N/A   Clear
5:55 PM 34.7 °F 30.6 °F 27.0 °F 73% 30.41 in 10.0 mi NW 4.6 mph - N/A   Clear
6:15 PM 34.0 °F 29.8 °F 26.6 °F 74% 30.41 in 10.0 mi NW 4.6 mph - N/A   Clear
6:35 PM 33.1 °F 28.7 °F 26.6 °F 77% 30.43 in 10.0 mi NW 4.6 mph - N/A   Clear
6:55 PM 32.5 °F 28.1 °F 26.4 °F 78% 30.43 in 10.0 mi NW 4.6 mph - N/A   Clear
7:15 PM 32.0 °F 25.6 °F 26.1 °F 79% 30.44 in 10.0 mi NW 6.9 mph - N/A   Clear
7:35 PM 32.0 °F 25.6 °F 25.7 °F 78% 30.44 in 10.0 mi NW 6.9 mph - N/A   Clear
7:55 PM 32.0 °F 26.4 °F 25.3 °F 76% 30.44 in 10.0 mi NW 5.8 mph - N/A   Clear
8:15 PM 31.6 °F 28.3 °F 25.3 °F 78% 30.45 in 10.0 mi NW 3.5 mph - N/A   Clear
8:35 PM 31.5 °F 24.9 °F 24.8 °F 76% 30.45 in 10.0 mi NW 6.9 mph - N/A   Clear
8:55 PM 30.9 °F 25.2 °F 24.8 °F 78% 30.45 in 10.0 mi NW 5.8 mph - N/A   Clear
9:15 PM 30.7 °F 24.1 °F 24.8 °F 79% 30.45 in 10.0 mi NW 6.9 mph - N/A   Clear
9:35 PM 30.4 °F 25.6 °F 24.6 °F 79% 30.46 in 10.0 mi NNW 4.6 mph - N/A   Clear
9:55 PM 30.2 °F 26.7 °F 24.6 °F 80% 30.46 in 10.0 mi NNW 3.5 mph - N/A   Clear
10:15 PM 30.2 °F 26.7 °F 24.6 °F 80% 30.47 in 10.0 mi NNW 3.5 mph - N/A   Clear
10:35 PM 29.8 °F 26.3 °F 24.3 °F 80% 30.47 in 10.0 mi NNW 3.5 mph - N/A   Clear
10:55 PM 29.7 °F 26.1 °F 23.9 °F 79% 30.47 in 10.0 mi NW 3.5 mph - N/A   Clear
11:15 PM 29.3 °F 25.6 °F 23.9 °F 80% 30.47 in 10.0 mi NW 3.5 mph - N/A   Clear
11:35 PM 29.3 °F 25.6 °F 23.9 °F 80% 30.47 in 10.0 mi NNW 3.5 mph - N/A   Clear
11:55 PM 29.1 °F 24.1 °F 23.9 °F 81% 30.47 in 10.0 mi NNW 4.6 mph - N/A   Clear